HYLAS 1 (37237 NORAD) Tracking and Keplerian Element Data

This shows tracking and keplerian element data for the satellite.

Feedback or suggestion? Click here.




ElementValue
Catalog37237
NameHYLAS 1
Epoch Orbit188
Epoch Day34.69017678
Epoch Year2025
RAAN79.1398
Inclination4.3707
Eccentricity2.48E-05
Argument of Perigee247.0414
Mean Anonmoly89.6167
Mean Motion1.00272691
Decay Rate1.57E-06
L11 37237U 10065A 25034.69017678 .00000157 00000+0 00000+0 0 9993
L22 37237 4.3707 79.1398 0000248 247.0414 89.6167 1.00272691 1880



Live tracking and technical data element details for HYLAS 1 (NORAD 37237). HYLAS 1 can be tracked NOW for your location showing map with azimuth and elevation plus other details from your city location.







IsCatalogInMostPopularTable: catalog: 37237, numindb: 571
Update: records affected: 1



GetName: 37237 HYLAS 1

Hit Count: updated at: Thu, 22 May 2025 04:20:57 GMT